Volver al catálogo

COSMOS 1436

ActivoMilitarLEO
NORAD 13768·PAYLOAD·🇷🇺 Russia

Lanzado Jan 19, 1983 desde Plesetsk Cosmodrome

Loading…

Próximos Pases (próximas 24 horas)

TLE

ActualizadoSource: Space-Track

Época: Sep 14, 2026, 00:12 UTC

1 13768U 83002H   26257.00865804 -.00000022  00000-0 -32260-4 0  9994
2 13768  74.0207 264.5092 0044544 275.1722 112.5265 12.57743513  4163

Sigue COSMOS 1436 en tiempo real con AllMySat

Download on the App Store